Location: Casilda
(33.0440°S, 61.1680°W)
Time: 02:04:55
(UTC-03:00)

ISS - Visible Passes

Search period start: 20 July 2018 00:00
Search period end: 30 July 2018 00:00
Orbit: 402 x 408 km, 51.6° (Epoch: 20 July)

Date Brightness Start Highest point End Pass type
(mag) Time Alt. Az. Time Alt. Az. Time Alt. Az.
23 Jul -1.6 07:35:37 10° NNW 07:38:35 31° NE 07:41:34 10° ESE visible
24 Jul -0.6 06:44:40 10° NNE 06:46:37 15° NE 06:48:35 10° E visible
25 Jul -3.8 07:27:20 10° NW 07:30:39 83° SW 07:34:00 10° SE visible
26 Jul -2.5 06:35:24 10° NNW 06:38:32 42° NE 06:41:44 10° ESE visible
27 Jul -1.1 05:46:47 19° ENE 05:46:47 19° ENE 05:48:59 10° E visible
27 Jul -2.8 07:19:51 10° WNW 07:22:50 30° SW 07:25:51 10° SSE visible
28 Jul -3.8 06:30:33 62° SW 06:30:35 62° SW 06:33:54 10° SE visible
29 Jul -0.7 05:41:14 13° SE 05:41:14 13° SE 05:41:42 10° SE visible
29 Jul -1.8 07:13:56 12° SW 07:15:09 14° SSW 07:17:06 10° S visible
